Tracking 28096 objects as of 29-Sep-2023
HD Live streaming from Space Station
objects crossing your sky now

STARLINK-6049

Track STARLINK-6049 now!
10-day predictions
STARLINK-6049 is classified as:


NORAD ID: 56796
Int'l Code: 2023-078AF
Perigee: 494.2 km
Apogee: 498.7 km
Inclination: 70.0 °
Period: 94.4 minutes
Semi major axis: 6867 km
RCS: Unknown
Launch date: May 31, 2023
Source: United States (US)
Launch site: AIR FORCE WESTERN TEST RANGE (AFWTR)
Your satellite tracking list
Your tracking list is empty




NASA's NSSDC Master Catalog

Two Line Element Set (TLE):
1 56796U 23078AF  23271.91668981 -.00884350  00000-0 -37917-1 0  9994
2 56796  69.9989  76.3189 0003261 274.7342 300.5827 15.25495774  6022
Source of the keplerian elements: AFSPC